Location: Christian Reformed Church
(43.0975°N, 93.8113°W)
Time: 16:19:36
(UTC+00:00)

Cosmos 1602 Rocket - Pass Details

Date: 13 December 2025
Orbit: 596 x 626 km, 82.5° (Epoch: 15 January)

Event Time Altitude Azimuth Distance (km) Brightness Sun altitude
Rises 12:01:46 0° 180° (S) 2,895 7.2 -17.0°
Reaches altitude 10° 12:04:00 10° 178° (S) 1,994 6.4 -16.6°
Maximum altitude 12:08:24 69° 96° (E) 673 3.9 -15.8°
Drops below altitude 10° 12:12:49 10° 13° (NNE) 2,007 6.1 -15.0°
Sets 12:15:04 0° 11° (N) 2,916 6.9 -14.6°
